Miscellaneous Local Product
Issued by NWS Hastings, NE

Home | Current Version | Previous Version | Graphics & Text | Print | Product List | Glossary On
Versions: 1 2 3 4 5 6 7 8 9 10 11 12 13 14 15 16 17 18 19 20 21 22 23 24 25 26 27 28 29 30 31 32 33 34 35 36 37 38 39 40 41 42 43 44 45 46 47 48 49 50
000
AXUS43 KGID 290602
MISGRI

GID CWA HOURLY WEATHER ROUNDUP
NATIONAL WEATHER SERVICE HASTINGS NE
100 AM CDT FRI AUG 29 2014

NOTE: "FAIR" INDICATES FEW OR NO CLOUDS BELOW 12,000 FEET WITH NO
SIGNIFICANT WEATHER AND/OR OBSTRUCTIONS TO VISIBILITY.

...SOUTH CENTRAL NEBRASKA...

CITY           SKY/WX    TMP DP  RH WIND       PRES   REMARKS
GRAND ISLAND   FAIR      71  67  87 SW3       29.84F
HASTINGS       FAIR      68  62  81 W6        29.85S
KEARNEY        FAIR      66  64  94 N6        29.87R
ORD            PTCLDY    63  62  97 NW7       29.84F
YORK           FAIR      68 N/A N/A S7        29.84S
AURORA         FAIR      69  68  96 SW5       29.84S
LEXINGTON      MOCLDY    65  63  94 NW10      29.89R
HOLDREGE       FAIR      67  64  89 CALM      29.86S
HEBRON         FAIR      69  64  83 CALM      29.83F

...NEBRASKA PANHANDLE...

CITY           SKY/WX    TMP DP  RH WIND       PRES   REMARKS
CHADRON        CLEAR     55  53  93 W6        29.96F
ALLIANCE       PTCLDY    54  51  90 W8        29.99F
SCOTTSBLUFF    CLEAR     54  52  93 NE3       30.02F
SIDNEY         PTCLDY    58  51  78 NW9       30.04F

...WESTERN AND NORTH CENTRAL NEBRASKA...

CITY           SKY/WX    TMP DP  RH WIND       PRES   REMARKS
VALENTINE      MOCLDY    63  62  97 SW6       29.89F
AINSWORTH      CLEAR     60  59  97 W5        29.89S
ONEILL         PTCLDY    65  65  99 W6        29.84S
BROKEN BOW     PTCLDY    63  61  93 CALM      29.88F
IMPERIAL       PTCLDY    60  56  86 NW5       29.96F
NORTH PLATTE   CLEAR     59  57  93 NW6       29.93S
MCCOOK         CLEAR     63  57  81 NW12      29.91F

...EASTERN NEBRASKA...

CITY           SKY/WX    TMP DP  RH WIND       PRES   REMARKS
NORFOLK        MOCLDY    71  68  90 CALM      29.82S
SO SIOUX CITY  FAIR      72  70  93 SE5       29.80F FOG
TEKAMAH        FAIR      72  70  93 SE7       29.82F
COLUMBUS       MOCLDY    72  66  83 CALM      29.83F
ALBION         FAIR      66  64  95 CALM      29.83S
OMAHA EPPLEY   CLOUDY    73  68  84 SE7       29.84F
OFFUTT AFB     MOCLDY    73  73 100 E6        29.84F
MILLARD        FAIR      74  70  87 SE6       29.83F
LINCOLN        FAIR      73  68  84 S6        29.84F
NEBRASKA CITY  FAIR      71  71 100 S5        29.85F
BEATRICE       MOCLDY    72  69  89 SE7       29.85F
FALLS CITY     FAIR      75  73  93 SE5       29.85F

...NORTHERN KANSAS...

CITY           SKY/WX    TMP DP  RH WIND       PRES   REMARKS
GOODLAND       CLEAR     59  57  93 W7        30.00S
HILL CITY      FAIR      67  61  81 SW8       29.92R
NORTON         CLEAR     66  55  68 W7        29.89R
SMITH CENTER   CLEAR     66  64  94 SW6       29.86R
BELOIT         CLEAR     72  66  83 CALM      29.84R
HAYS           MOCLDY    66  54  63 W17G23    29.90F
RUSSELL        FAIR      70  63  78 SW12      29.87R
CONCORDIA      FAIR      72  68  87 CALM      29.85R
SALINA         FAIR      75  65  70 SW12      29.85R
TOPEKA         FAIR      77  65  66 E6        29.87S



USA.gov is the U.S. government's official web portal to all federal, state and local government web resources and services.